TimeEDT,TemperatureF,Dew PointF,Humidity,Sea Level PressureIn,VisibilityMPH,Wind Direction,Wind SpeedMPH,Gust SpeedMPH,PrecipitationIn,Events,Conditions,WindDirDegrees,DateUTC
12:53 AM,64.9,53.1,65,29.95,10.0,South,9.2,-,N/A,,Clear,180,2012-10-25 04:53:00
1:53 AM,64.9,53.1,65,29.94,10.0,South,11.5,-,N/A,,Clear,180,2012-10-25 05:53:00
3:53 AM,63.0,53.1,70,29.92,10.0,South,9.2,-,N/A,,Clear,180,2012-10-25 07:53:00
4:53 AM,63.0,53.1,70,29.91,10.0,South,9.2,-,N/A,,Clear,190,2012-10-25 08:53:00
5:53 AM,62.1,53.1,72,29.91,10.0,South,9.2,-,N/A,,Clear,170,2012-10-25 09:53:00
6:53 AM,61.0,53.1,75,29.92,10.0,South,8.1,-,N/A,,Clear,180,2012-10-25 10:53:00
7:53 AM,61.0,53.1,75,29.94,10.0,South,8.1,-,N/A,,Clear,190,2012-10-25 11:53:00
8:53 AM,61.0,53.1,75,29.95,10.0,SSE,6.9,-,N/A,,Clear,160,2012-10-25 12:53:00
9:53 AM,64.9,54.0,68,29.94,10.0,South,12.7,-,N/A,,Clear,180,2012-10-25 13:53:00
10:53 AM,70.0,55.9,61,29.92,10.0,SSW,18.4,26.5,N/A,,Clear,200,2012-10-25 14:53:00
11:53 AM,72.0,57.0,59,29.91,10.0,SSW,20.7,28.8,N/A,,Clear,200,2012-10-25 15:53:00
1:53 PM,75.9,57.0,52,29.85,10.0,South,19.6,29.9,N/A,,Unknown,190,2012-10-25 17:53:00
2:53 PM,75.9,57.0,52,29.83,10.0,South,19.6,29.9,N/A,,Scattered Clouds,190,2012-10-25 18:53:00
3:53 PM,77.0,57.9,52,29.80,10.0,South,24.2,34.5,N/A,,Scattered Clouds,170,2012-10-25 19:53:00
4:53 PM,75.0,57.0,53,29.81,10.0,South,19.6,32.2,N/A,,Mostly Cloudy,190,2012-10-25 20:53:00
5:53 PM,75.0,57.0,53,29.80,10.0,South,15.0,-,N/A,,Partly Cloudy,170,2012-10-25 21:53:00
6:53 PM,73.0,55.9,55,29.81,10.0,South,13.8,23.0,N/A,,Unknown,180,2012-10-25 22:53:00
8:53 PM,72.0,55.0,55,29.82,10.0,South,15.0,-,N/A,,Mostly Cloudy,180,2012-10-26 00:53:00
9:53 PM,71.1,54.0,55,29.82,10.0,South,13.8,23.0,N/A,,Overcast,180,2012-10-26 01:53:00
10:53 PM,71.1,55.0,57,29.83,10.0,SSW,19.6,23.0,N/A,,Overcast,200,2012-10-26 02:53:00
11:53 PM,60.1,53.1,78,29.90,10.0,WNW,19.6,27.6,N/A,,Overcast,300,2012-10-26 03:53:00